Regional Weather Roundup
Issued by NWS

Home | Current Version | Previous Version | Text Only | Print | Product List | Glossary On
Versions: 1 2 3 4 5 6 7 8 9 10 11 12 13 14 15 16 17 18 19 20 21 22 23 24 25 26 27 28 29 30 31 32 33 34 35 36 37 38 39 40 41 42 43 44 45 46 47 48 49 50
000
ASUS42 KFFC 231403
RWRGA
WEATHER ROUNDUP FOR GEORGIA
NATIONAL WEATHER SERVICE PEACHTREE CITY GA
1000 AM EDT SAT AUG 23 2014

NOTE: "FAIR" INDICATES FEW OR NO CLOUDS BELOW 12,000 FEET WITH NO
SIGNIFICANT WEATHER AND/OR OBSTRUCTIONS TO VISIBILITY.

* = USE WITH CAUTION. THE STATIONS MARKED WITH AN ASTERISK MAY NOT
REPORT WEATHER SUCH AS PRECIPITATION, FOG, OR THUNDER AND ARE NOT
QUALITY CONTROLLED BY NWS.

THE REMARK "TC" DENOTES TEMPERATURE READING IN DEGREES CELSIUS.

GAZ001>058-231500-
NORTH GEORGIA

CITY           SKY/WX    TMP DP  RH WIND       PRES   REMARKS
ATLANTA        MOSUNNY   83  71  67 NW9       30.04S
ATHENS         SUNNY     86  72  62 VRB6      30.01S HX  92
CHAMBLEE       SUNNY     84  72  67 NW7       30.04S
PEACHTREE CITY SUNNY     83  73  72 NW6       30.05S
ROME           SUNNY     81  74  79 CALM      30.03S
WEST ATLANTA   SUNNY     83  72  69 VRB5      30.04R
GAINESVILLE    SUNNY     83  71  67 NW8       30.05F
CARTERSVILLE   SUNNY     80  71  74 CALM      30.05R


CITY           SKY/WX    TMP DP  RH WIND       PRES   REMARKS
DALTON*        SUNNY     79  73  83 CALM      30.03F
LAWRENCEVILLE* SUNNY     82  70  65 NW6       30.03S
MARIETTA       MOSUNNY   84  73  68 NW10      30.05R HX  90
KENNESAW*      SUNNY    N/A N/A N/A CALM      30.06F
$$

GAZ059>098-102>109-231500-
CENTRAL GEORGIA

CITY           SKY/WX    TMP DP  RH WIND       PRES   REMARKS
AUGUSTA-BUSH   SUNNY     87  72  60 N8        29.96S HX  93
AUGUSTA-DANIEL SUNNY     87  71  58 NW7       29.98S HX  93
COLUMBUS       SUNNY     88  71  57 CALM      30.01S HX  94
MACON          SUNNY     87  76  69 NW3       30.00S HX  97
ROBINS AFB     SUNNY     86  74  68 N2        30.00S HX  94


CITY           SKY/WX    TMP DP  RH WIND       PRES   REMARKS
LAGRANGE*      SUNNY     89  77  67 NW6       30.04S HX 101
SYLVANIA*      SUNNY     88  76  65 NW6       29.97S HX  99
MILLEDGEVILLE* SUNNY     84  77  79 W6        30.00  HX  94
$$

GAZ099>101-110>166-231500-
SOUTH GEORGIA

CITY           SKY/WX    TMP DP  RH WIND       PRES   REMARKS
SAVANNAH       MOSUNNY   89  73  59 NW6       29.96R HX  97
VALDOSTA       SUNNY     89  73  59 VRB3      29.99S HX  97
ALMA           SUNNY     88  72  58 N6        29.98S HX  94
ST SIMONS      SUNNY     88  72  58 NW6       29.96S HX  94
FT STEWART     SUNNY     91  72  53 VRB5      29.95S HX  98
ALBANY         SUNNY     85  75  72 NW3       30.02S HX  93
HUNTER AFB     SUNNY     89  74  62 NW7       29.94R HX  97
MOODY AFB      SUNNY     87  75  67 NW6       29.99S HX  96
BRUNSWICK      SUNNY     88  73  62 NW5       29.97S HX  96


CITY           SKY/WX    TMP DP  RH WIND       PRES   REMARKS
BAINBRIDGE*    SUNNY     90  77  66 NW7       30.01S HX 102
MOULTRIE*      SUNNY     86  77  74 NW5       30.01S HX  97
VIDALIA*         N/A     90  73  58 NW8       29.99R HX  98
WAYCROSS*      SUNNY     90  78  67 N5        29.98S HX 104
DOUGLAS*       SUNNY     90  72  55 N6        30.00S HX  96
$$


USA.gov is the U.S. government's official web portal to all federal, state and local government web resources and services.